{"data":{"norad_id":67403,"epoch":"2026-09-19T20:37:51.640608Z","epoch_age_seconds":73540,"freshness":"FRESH","line1":"1 67403U 25315C   26262.85962547 -.00000074  00000+0  00000+0 0  9990","line2":"2 67403   3.6304  92.8122 0006910  86.9307 201.9969  1.00269903  2638","mean_motion":1.00269903,"eccentricity":0.000691,"inclination_deg":3.6304,"raan_deg":92.8122,"arg_perigee_deg":86.9307,"mean_anomaly_deg":201.9969,"bstar":0,"rev_number":263,"period_min":1436.1238586219,"perigee_km":35757.986368004,"apogee_km":35816.258756719,"semimajor_km":42165.259562361,"source":"CELESTRAK","updated_at":"2026-09-20T09:00:35.348410Z"}}